This is the latest recevied weather packets stored in our database for station/object WD8INF-9. If no packets are shown the sender has not sent any weather packets the latest 10 day(s).
| Time | Temp. | Humidity | Pressure | Rain* | Wind** | Luminosity | Snow |
|---|---|---|---|---|---|---|---|
| 1777400957 | 23.89° C | - | 1012.3 hPa | 0 mm | - | - | - |
| 1777400656 | 23.33° C | - | 1012.1 hPa | 0 mm | - | - | - |
| 1777400356 | 23.33° C | - | 1012.1 hPa | 0 mm | - | - | - |
| 1777400055 | 22.78° C | - | 1011.9 hPa | 0 mm | - | - | - |
| 1777399754 | 23.89° C | - | 1012.1 hPa | 0 mm | - | - | - |
| 1777399454 | 22.78° C | - | 1012 hPa | 0 mm | - | - | - |
| 1777399154 | 22.22° C | - | 1011.7 hPa | 0 mm | - | - | - |
| 1777398853 | 23.33° C | - | 1011.9 hPa | 0 mm | - | - | - |
| 1777398553 | 25.56° C | - | 1011.9 hPa | 0 mm | - | - | - |
| 1777398253 | 26.11° C | - | 1011.8 hPa | 0 mm | - | - | - |
| 1777397952 | 24.44° C | - | 1012 hPa | 0 mm | - | - | - |
| 1777397652 | 25.56° C | - | 1012.2 hPa | 0 mm | - | - | - |
| 1777397351 | 25.56° C | - | 1012.2 hPa | 0 mm | - | - | - |
| 1777397051 | 25° C | - | 1012.1 hPa | 0 mm | - | - | - |
| 1777396751 | 25° C | - | 1012 hPa | 0 mm | - | - | - |
| 1777396450 | 25° C | - | 1012.6 hPa | 0 mm | - | - | - |
| 1777396150 | 26.11° C | - | 1012.3 hPa | 0 mm | - | - | - |
| 1777395850 | 25.56° C | - | 1012.5 hPa | 0 mm | - | - | - |
| 1777395549 | 24.44° C | - | 1012.5 hPa | 0 mm | - | - | - |
| 1777395248 | 22.78° C | - | 1012.5 hPa | 0 mm | - | - | - |
| 1777394948 | 25° C | - | 1012.7 hPa | 0 mm | - | - | - |
| 1777394648 | 24.44° C | - | 1012.6 hPa | 0 mm | - | - | - |
| 1777394347 | 22.78° C | - | 1012.5 hPa | 0 mm | - | - | - |
| 1777394047 | 20.56° C | - | 1012.7 hPa | 0 mm | - | - | - |
| 1777393747 | 20.56° C | - | 1012.7 hPa | 0 mm | - | - | - |
* Rain since midnight (hover to see other rain measurements)
** Current wind speed in m/s (hover to see current wind gust speed)